TIANHUI 5A

Satellite information

Favourite Embed

Satellite Type and Status

PAYLOADIN ORBIT

Key statistics

Satellite TIANHUI 5A at a glance.

Uptime

554

Days in orbit

Revolutions

≈ 14.9

Per day

Orbit

SSO

Sun Synchronous Orbit

Inclination

97.8

Latest

Satellite identification and parameters

Extended collection of information and parameters for TIANHUI 5A.

Object identification

Identified? True

Debris? False

Object name: TIANHUI 5A

International designator: 2023-168A

Object number (NORAD): 58199

Object ID (CCSDS): 58199

Country: PEOPLES REPUBLIC OF CHINA (PRC)

Current information (Y/N): Y

RCS size: LARGE

Orbital parameters

Period: 96.802 minutes

Inclination: 97.8204 deg

SMA: 6983.64 km

Apoapsis: 606.598 km

Periapsis: 604.413 km

RAAN: 133.6703 deg

Eccentricy: 0.0001565

Argument of periapsis: 94.7796 deg

Mean anomaly: 265.3599 deg

Mean motion: 14.8757871 rev/day

Mean motion (dot): 0.00000763 rev/day2

B* drag term: 0.000089956 1/REarth

Two-line elements (TLE)

Creation date: May 6, 2025, 3:54 a.m.

Reference frame: TEME

Reference center: EARTH

Epoch: May 5, 2025, 10:52 a.m. UTC

TLE line 0: 0 TIANHUI 5A

TLE line 1: 1 58199U 23168A 25125.45324398 .00000763 00000-0 89956-4 0 9992

TLE line 2: 2 58199 97.8204 133.6703 0001565 94.7796 265.3599 14.87578710 81989

Live tracking on map

Real-time ground track for satellite TIANHUI 5A.

In-orbit conjunctions

There are no conjunctions computed for TIANHUI 5A, at the moment. Check back to stay up to date, as we update our databases every day.

Go to all conjunctions

Associated space launch

A pair of satellites officially described as for cartographic surveying purposes, details TBD.

TIANHUI 5A was lifted into orbit during the mission ‘Long March 6A | Tianhui 5’, on board a Long March 6A space rocket.

The launch took place on Oct. 31, 2023, 10:50 p.m. from Launch Complex 9A.

For more information about the launch, click the button.

Launch to space Long March 6A | Tianhui 5
Long March 6A | Tianhui 5

Agency: N/A

Status: Launch Successful

Launch date: Oct. 31, 2023, 10:50 p.m. UTC

Rocket: Long March 6A

Launch pad: Launch Complex 9A

Location: Taiyuan Satellite Launch Center, People's Republic of China

...

Latest news about this satellite

There are no fresh news available about this satellite. Check back as we update our databases every day.


Newsletter sign-up

Weekly statistics, charts and insights to help you stay on top of the space industry.